Wetbulb
37.92 32.32 28.69 32.97 36.79 38.99 38.89 38.04 36.56 38.78 42.68 43.95 43.01 43.30 47.55 50.07 52.94 53.78 54.88 54.70 54.55 54.13 55.45 56.60 58.03 58.97 59.34 59.67 59.84 59.88 58.43 57.84 60.55 58.74 56.34 55.34 51.96 50.02 48.92 49.00 49.20 49.19 49.02 47.73
33.47 28.70 33.86 36.74 38.32 38.35 39.71 37.77 37.13 38.49 42.65 41.85 42.07 42.24 46.36 48.61 49.81 53.33 54.76 54.92 54.72 55.01 54.57 55.26 56.59 57.59 58.60 58.76 59.52 59.04 58.81 58.25 60.39 59.22 56.85 53.48 50.59 47.59 46.91 46.71 46.16 46.53 46.24 44.92
29.81 31.42 37.38 36.38 36.33 32.54 37.96 36.30 36.43 36.08 39.84 41.83 40.16 40.26 44.98 48.43 50.68 52.97 55.30 56.21 55.90 55.57 54.99 54.95 55.30 55.91 56.69 56.87 58.02 58.28 58.35 59.26 60.47 56.51 50.62 47.97 47.44 46.40 45.41 44.47 43.80 43.69 43.87 43.17
32.62 35.85 33.61 33.15 34.73 34.11 31.95 39.56 38.72 37.82 36.94 31.76 40.66 33.21 43.28 46.01 46.93 51.16 53.94 55.47 55.86 56.52 56.90 56.27 55.41 55.39 55.77 56.31 57.31 57.79 58.13 60.22 57.43 53.71 51.19 50.13 49.44 46.16 44.92 43.20 42.57 41.99 42.25 41.49
31.21 33.80 33.60 31.69 34.37 39.45 35.85 40.30 38.61 38.22 36.07 35.29 37.22 35.84 39.58 45.65 44.04 47.73 52.96 54.57 56.11 56.88 57.41 56.64 56.16 55.96 56.42 55.95 56.71 57.51 58.18 58.84 55.84 54.77 53.53 51.13 46.08 43.89 42.62 41.65 40.52 40.09 40.18 40.29
32.58 40.66 38.15 38.25 41.12 40.69 41.85 39.82 38.79 36.16 35.11 28.14 35.00 36.89 36.63 41.74 43.84 47.11 52.08 54.15 55.56 56.12 56.46 55.84 53.16 53.22 50.87 52.46 54.09 56.55 56.41 55.31 55.37 54.61 52.56 48.78 44.15 41.84 40.49 39.91 38.94 37.96 37.86 37.81
33.79 34.66 37.84 40.29 38.18 41.67 40.63 35.92 29.26 27.42 26.35 27.06 36.84 35.85 39.08 44.19 47.14 48.53 50.96 53.74 54.87 56.06 52.71 50.32 49.78 49.60 49.40 49.35 49.81 53.01 52.74 49.96 51.13 49.78 49.38 47.18 44.43 42.48 40.94 39.95 38.68 37.14 36.67 36.71
27.56 26.62 35.91 39.05 38.20 37.21 37.46 34.67 27.91 22.25 26.17 29.97 34.96 31.61 38.41 43.46 49.01 50.82 52.19 54.62 55.38 54.26 51.47 51.03 49.88 48.50 47.18 46.16 46.02 47.37 47.79 46.61 47.33 48.16 47.04 45.74 44.61 43.59 41.68 40.09 38.47 37.81 37.03 37.00
25.88 29.03 39.60 37.26 38.89 41.34 37.35 34.91 37.15 31.53 31.69 29.16 32.70 34.40 41.47 45.74 47.02 47.29 51.95 54.08 53.93 52.43 51.44 50.18 48.55 48.61 46.46 45.30 45.03 45.24 45.62 46.22 45.36 44.77 44.86 43.70 43.15 42.49 39.80 38.24 38.04 37.43 37.25 36.87
31.47 27.86 36.51 37.20 38.77 42.89 39.95 40.71 33.80 33.33 25.87 24.85 31.93 32.49 34.76 41.47 44.79 46.59 50.83 52.59 50.48 48.75 46.53 45.97 46.04 45.88 46.17 45.34 44.61 44.42 44.70 44.10 43.99 42.60 41.94 40.24 38.79 38.22 37.63 37.56 36.48 36.41 36.37 35.79
32.35 32.08 30.71 35.44 32.67 33.79 38.28 36.46 37.19 36.59 34.19 28.85 28.35 30.55 36.75 36.18 46.05 47.20 48.15 47.20 45.56 44.64 44.01 43.47 42.61 42.12 42.25 42.11 41.47 40.68 40.30 40.03 39.17 39.39 39.53 39.35 38.59 38.05 37.94 37.59 37.67 36.71 35.08 33.00
31.95 31.22 26.96 30.18 36.60 38.77 37.73 37.41 37.70 31.56 30.16 31.27 30.75 32.18 40.07 39.36 46.21 44.21 42.98 43.04 43.78 44.01 43.25 42.22 40.28 40.09 40.10 39.31 39.07 38.38 38.84 39.05 39.29 39.09 38.64 38.08 38.16 38.82 38.84 37.27 33.41 33.04 32.12 32.33
32.42 29.34 21.61 25.74 34.05 37.88 34.47 35.57 38.70 36.92 33.85 29.71 29.51 32.13 41.55 43.14 42.89 42.65 41.12 41.69 41.83 40.86 40.12 39.31 39.06 38.42 38.21 38.03 37.93 37.86 38.70 38.62 38.99 39.16 38.87 38.96 38.79 37.12 34.14 32.46 31.87 31.57 30.86 30.84
35.66 31.20 28.73 24.72 28.80 32.95 33.49 35.56 38.10 36.61 31.00 31.50 31.40 31.91 37.81 39.43 38.80 39.49 39.67 40.32 40.42 39.86 39.20 38.56 38.41 38.30 38.11 38.07 37.92 38.07 38.91 39.87 39.64 39.13 38.50 36.79 34.34 33.51 32.32 31.31 30.51 29.96 29.62 29.27
31.03 27.37 30.48 31.06 32.24 33.27 33.28 34.19 35.99 36.34 36.38 31.76 32.85 31.49 37.68 39.46 38.96 38.50 38.81 38.68 38.35 37.86 37.87 37.64 36.96 36.85 37.72 38.19 39.05 39.61 38.96 38.72 38.34 37.14 35.85 34.50 32.64 31.30 30.34 29.50 29.07 28.53 28.29 28.09
29.05 26.12 28.47 26.89 30.42 31.72 30.54 32.35 34.85 37.21 37.70 35.92 32.87 32.15 37.33 39.26 39.13 37.96 38.12 38.14 37.36 37.00 37.29 37.43 37.72 37.90 38.22 38.73 39.28 39.40 39.04 37.55 37.18 35.99 33.81 31.84 30.25 29.14 28.76 28.21 27.67 27.25 26.85 26.13
25.35 25.94 26.71 19.46 28.37 29.02 24.50 29.35 32.55 37.16 38.75 38.15 31.10 33.00 38.72 37.72 38.29 37.75 37.62 38.24 37.92 38.47 38.13 38.01 38.24 38.40 39.23 39.70 39.95 38.93 37.44 35.91 34.81 33.23 31.40 29.74 28.80 28.05 27.56 27.18 26.29 25.74 25.38 25.13
24.03 24.18 27.70 21.74 25.06 18.75 27.41 31.36 34.07 37.18 38.96 39.41 35.62 35.67 36.32 38.66 38.25 39.14 39.66 39.37 39.85 39.81 39.17 39.29 39.65 40.01 40.25 39.67 38.31 36.89 35.35 33.69 32.49 30.95 30.02 29.02 28.02 27.34 26.59 25.59 25.02 24.78 24.30 23.72
27.18 24.76 21.83 22.00 19.18 25.13 27.96 30.48 34.46 35.08 36.02 38.80 37.50 35.38 36.18 37.09 38.02 35.80 37.48 40.45 40.66 40.30 39.98 40.36 40.86 40.11 39.25 39.14 38.22 36.03 32.68 31.78 30.67 30.71 29.70 28.83 27.52 26.60 25.59 24.86 24.03 23.69 23.14 22.74
26.68 27.15 22.25 18.40 20.96 12.72 24.92 28.84 33.27 33.44 30.93 32.38 34.76 36.77 35.00 35.93 33.55 32.18 33.88 36.28 37.34 39.26 40.15 40.46 40.40 42.11 41.12 39.12 37.14 35.05 33.97 32.25 31.61 31.28 30.56 29.60 28.42 27.62 26.53 24.80 24.12 23.38 22.60 23.38
21.16 18.96 13.06 19.22 22.81 22.60 26.87 29.69 32.68 28.58 28.86 31.13 34.30 37.01 35.34 33.76 31.69 32.31 33.13 32.35 32.22 32.15 33.85 35.65 37.66 37.55 36.72 35.63 35.19 34.80 34.02 32.55 32.41 31.22 30.10 28.33 27.71 26.97 25.83 24.04 22.42 20.51 21.11 21.31
20.30 19.74 14.49 17.00 21.10 15.95 27.83 34.06 29.81 28.67 30.47 31.80 33.95 34.77 32.40 31.88 31.48 30.96 30.98 30.43 31.02 30.63 30.98 31.89 31.64 30.40 29.61 31.16 32.42 31.47 31.38 30.32 28.00 26.32 24.47 23.00 21.15 22.78 22.74 20.69 18.54 17.44 17.27 17.63
22.66 24.23 19.79 25.13 26.24 26.16 29.96 30.47 29.77 29.91 29.59 31.91 33.43 33.02 32.86 31.32 30.28 30.35 29.59 29.38 29.09 29.12 28.84 28.85 29.01 28.25 26.73 24.38 25.95 25.13 24.70 22.39 20.09 18.43 18.03 16.58 16.41 19.30 19.50 17.50 18.44 16.02 14.61 16.10
26.68 25.05 21.51 24.33 25.81 26.46 29.09 29.43 28.82 29.39 30.71 31.64 32.86 32.69 32.52 30.47 30.00 29.34 29.37 28.95 28.49 27.65 26.82 25.47 24.66 23.59 23.16 21.72 22.79 21.73 20.97 18.72 15.49 15.51 15.59 14.99 14.65 15.84 14.64 18.55 18.53 16.76 15.34 14.77
23.98 24.43 22.24 23.57 26.23 27.48 28.92 29.22 27.91 28.43 29.04 29.60 30.15 30.73 30.61 29.78 28.55 28.46 27.73 27.10 26.64 25.79 23.04 21.75 21.70 20.91 19.98 18.74 18.78 15.16 16.65 13.46 15.80 13.79 13.94 14.29 15.16 13.43 15.40 16.37 17.20 18.17 19.51 20.08
24.12 22.00 22.60 22.45 25.33 25.98 27.20 28.10 27.59 27.12 27.15 27.87 28.58 27.48 26.53 27.97 27.36 26.37 24.65 23.16 22.35 21.05 18.87 18.82 17.23 16.42 15.35 13.90 13.93 13.79 11.78 10.88 11.71 15.73 15.47 15.45 15.14 12.77 13.93 13.92 16.53 23.03 25.78 27.16
MSLP
1014.77 1014.87 1013.96 1012.90 1013.15 1012.45 1011.47 1010.64 1010.42 1010.34 1009.79 1009.68 1008.81 1008.60 1008.21 1007.89 1008.18 1008.44 1009.07 1009.93 1010.27 1010.71 1011.13 1011.81 1012.53 1012.98 1013.68 1014.27 1014.77 1015.37 1016.10 1016.66 1017.29 1017.93 1018.75 1019.46 1020.33 1020.92 1021.21 1021.43 1021.59 1021.57 1021.71 1021.94
1014.54 1013.65 1012.53 1013.14 1012.84 1012.39 1010.62 1010.67 1010.35 1010.52 1010.15 1010.07 1009.05 1007.90 1007.72 1007.06 1007.78 1007.81 1008.42 1008.74 1009.88 1010.35 1010.90 1011.47 1012.15 1012.72 1013.26 1013.97 1014.59 1015.21 1015.83 1016.52 1017.14 1017.69 1018.50 1019.34 1020.34 1021.31 1021.66 1021.92 1022.11 1022.29 1022.42 1022.54
1013.41 1011.64 1012.12 1012.66 1011.92 1012.12 1010.26 1010.12 1010.13 1010.42 1010.15 1009.88 1008.90 1007.38 1006.67 1006.35 1007.51 1007.50 1007.55 1007.74 1008.70 1009.12 1009.93 1010.90 1011.66 1012.26 1012.83 1013.63 1014.10 1014.89 1015.49 1016.20 1016.95 1017.58 1018.51 1019.82 1020.68 1021.52 1022.05 1022.42 1022.63 1022.96 1023.00 1023.15
1011.88 1011.27 1011.34 1011.14 1010.93 1010.90 1009.79 1010.32 1010.00 1010.31 1010.13 1009.59 1008.40 1007.22 1005.64 1005.83 1006.79 1007.08 1007.05 1007.59 1008.26 1008.79 1009.64 1010.47 1011.21 1011.99 1012.35 1013.15 1013.80 1014.48 1015.29 1016.07 1016.85 1017.45 1018.33 1019.11 1019.91 1021.13 1021.91 1022.58 1022.97 1023.50 1023.62 1023.67
1011.23 1009.79 1009.79 1010.53 1008.80 1009.42 1008.63 1009.02 1009.46 1009.84 1010.02 1009.61 1008.51 1007.81 1005.09 1005.64 1006.17 1006.67 1006.53 1007.48 1007.97 1008.45 1009.15 1009.89 1010.70 1011.62 1012.17 1013.13 1013.62 1014.29 1015.17 1015.93 1016.75 1017.30 1017.96 1018.87 1020.03 1020.97 1021.83 1022.70 1023.24 1023.83 1024.20 1024.39
1010.82 1009.72 1009.60 1008.56 1007.89 1008.32 1007.80 1008.39 1009.48 1009.99 1009.77 1009.03 1007.20 1006.83 1004.76 1004.18 1004.19 1005.96 1006.32 1006.95 1007.61 1008.53 1009.39 1010.31 1011.10 1011.84 1012.68 1013.45 1013.82 1014.46 1015.18 1016.01 1016.68 1017.30 1017.99 1018.64 1019.53 1020.80 1021.83 1022.66 1023.31 1024.14 1024.56 1024.92
1009.68 1009.17 1008.59 1008.25 1007.36 1007.84 1007.68 1008.32 1009.06 1009.32 1009.23 1007.84 1006.48 1006.43 1004.90 1003.19 1003.34 1004.86 1005.73 1006.49 1007.38 1008.24 1009.48 1010.36 1011.28 1012.33 1013.11 1013.92 1014.49 1014.74 1015.40 1016.32 1016.84 1017.46 1018.42 1019.03 1019.83 1020.77 1021.54 1022.62 1023.49 1024.22 1024.74 1024.97
1009.93 1009.15 1007.91 1007.28 1006.94 1006.47 1007.05 1007.22 1007.42 1008.12 1008.38 1007.51 1006.96 1005.98 1004.57 1003.79 1002.72 1004.24 1005.57 1006.28 1007.54 1008.68 1009.71 1010.75 1011.51 1012.48 1013.24 1014.31 1014.95 1015.43 1015.63 1016.46 1017.21 1017.88 1018.80 1019.49 1020.29 1021.08 1021.95 1022.81 1023.29 1024.14 1024.93 1025.45
1011.17 1009.11 1007.95 1007.67 1007.53 1006.64 1006.91 1007.04 1007.01 1006.87 1008.12 1008.05 1006.86 1006.08 1004.92 1004.09 1003.35 1004.81 1005.89 1006.61 1007.84 1009.07 1010.20 1011.34 1012.16 1013.38 1013.37 1014.29 1015.55 1015.91 1016.52 1017.11 1017.69 1018.38 1019.27 1019.82 1020.76 1021.48 1022.22 1022.85 1023.79 1024.20 1025.16 1025.57
1011.65 1009.79 1008.40 1007.69 1006.70 1006.00 1005.75 1006.45 1006.71 1008.11 1007.98 1007.16 1006.60 1006.31 1005.79 1004.87 1004.18 1005.28 1006.44 1007.56 1008.64 1009.71 1011.14 1012.27 1013.14 1014.06 1014.77 1014.85 1015.39 1016.17 1017.16 1017.73 1018.64 1019.31 1019.46 1020.43 1021.12 1022.08 1022.73 1023.39 1023.85 1024.69 1024.89 1025.41
1012.46 1010.83 1009.49 1008.56 1008.04 1007.13 1006.42 1006.14 1006.78 1007.64 1007.53 1006.83 1006.53 1006.91 1006.74 1006.08 1005.61 1005.77 1007.07 1008.33 1009.60 1010.65 1011.94 1012.93 1014.06 1014.83 1015.78 1015.99 1016.34 1016.84 1017.68 1018.26 1018.93 1019.83 1020.62 1021.14 1021.30 1022.25 1023.44 1024.17 1024.41 1024.54 1025.16 1025.62
1013.04 1011.62 1010.21 1009.11 1008.36 1007.69 1007.00 1006.72 1006.84 1007.50 1007.41 1006.93 1006.71 1007.33 1007.03 1006.58 1006.48 1007.02 1008.52 1009.95 1010.82 1011.59 1012.70 1013.73 1014.71 1015.84 1016.49 1017.12 1017.48 1018.11 1018.66 1018.87 1019.47 1020.29 1020.95 1021.70 1021.96 1022.13 1023.22 1023.93 1024.36 1024.86 1025.32 1025.36
1013.76 1012.42 1011.09 1009.73 1009.17 1008.45 1008.20 1007.93 1007.76 1007.45 1007.53 1007.22 1007.08 1007.86 1007.61 1007.48 1007.82 1008.78 1009.81 1010.96 1011.84 1012.85 1013.59 1014.68 1015.53 1016.35 1016.97 1017.17 1018.46 1018.65 1019.46 1020.07 1020.23 1020.66 1021.11 1022.41 1022.68 1022.88 1023.30 1024.05 1024.36 1025.16 1025.21 1025.65
1014.50 1013.59 1012.73 1012.02 1011.20 1010.28 1009.25 1008.64 1008.05 1007.75 1007.76 1007.74 1008.24 1008.47 1008.38 1008.57 1009.15 1009.93 1010.86 1011.74 1012.59 1013.46 1014.35 1015.02 1015.83 1016.66 1017.11 1017.71 1018.69 1019.21 1019.48 1020.33 1020.54 1020.65 1021.51 1022.32 1022.91 1023.18 1023.57 1024.24 1024.78 1024.79 1025.35 1025.81
1015.95 1014.65 1013.51 1012.55 1011.90 1011.07 1010.27 1009.50 1008.88 1008.35 1008.31 1008.22 1008.59 1009.06 1009.15 1009.36 1010.11 1011.01 1011.53 1012.39 1013.21 1013.95 1014.73 1015.46 1015.95 1016.62 1017.44 1018.22 1018.79 1019.30 1020.26 1020.73 1021.16 1021.27 1022.14 1022.75 1023.04 1023.59 1024.09 1024.45 1024.62 1024.91 1025.53 1025.67
1017.51 1016.76 1015.36 1013.54 1012.41 1011.60 1011.00 1010.10 1009.50 1009.09 1008.69 1008.73 1009.06 1009.55 1009.92 1010.31 1010.87 1011.87 1012.52 1012.99 1013.71 1014.40 1015.08 1015.87 1016.34 1016.72 1017.45 1018.19 1019.07 1019.81 1020.28 1020.79 1021.35 1021.96 1022.66 1023.02 1023.46 1023.84 1024.11 1024.38 1024.92 1025.20 1025.44 1025.63
1018.82 1017.77 1016.45 1015.03 1013.58 1012.38 1011.66 1011.29 1010.35 1009.71 1009.44 1009.57 1009.88 1010.48 1010.59 1011.23 1011.86 1012.43 1013.01 1013.55 1014.05 1014.56 1015.05 1015.62 1016.03 1016.76 1017.56 1018.43 1019.22 1020.01 1020.53 1021.06 1021.76 1022.17 1022.54 1022.99 1023.51 1023.89 1024.17 1024.53 1024.82 1025.06 1025.26 1025.44
1019.99 1018.84 1017.54 1016.38 1014.45 1013.59 1012.62 1011.76 1010.97 1010.51 1010.55 1010.53 1010.82 1011.27 1011.27 1011.64 1012.42 1013.02 1013.48 1013.85 1014.33 1014.67 1015.19 1015.72 1016.42 1017.27 1017.97 1018.67 1019.39 1020.13 1020.80 1021.17 1021.76 1022.31 1022.68 1023.13 1023.56 1023.86 1024.23 1024.60 1024.74 1024.80 1025.01 1025.13
1021.07 1020.16 1018.84 1017.52 1016.42 1014.57 1012.95 1012.70 1012.39 1012.04 1012.12 1012.08 1012.20 1012.21 1012.24 1012.45 1012.84 1014.03 1014.28 1014.45 1014.65 1014.96 1015.41 1015.96 1016.68 1017.46 1018.24 1018.83 1019.46 1020.16 1020.78 1021.19 1021.66 1021.89 1022.25 1022.84 1023.41 1023.75 1024.07 1024.44 1024.47 1024.62 1024.80 1024.89
1021.40 1020.96 1020.43 1018.91 1017.63 1016.07 1015.14 1014.05 1013.43 1013.37 1013.90 1013.58 1013.68 1013.24 1013.08 1013.07 1014.21 1015.68 1015.91 1015.77 1015.77 1015.92 1016.16 1016.65 1017.14 1017.65 1018.47 1019.13 1019.71 1020.38 1020.82 1021.27 1021.47 1021.59 1021.97 1022.46 1022.99 1023.54 1023.77 1023.81 1024.10 1024.17 1024.34 1024.49
1021.46 1021.19 1020.82 1019.63 1018.36 1016.97 1016.17 1015.09 1014.18 1014.64 1016.27 1015.47 1014.76 1014.36 1014.27 1014.96 1016.27 1016.85 1016.97 1017.21 1017.33 1017.34 1017.32 1017.53 1017.91 1018.60 1019.04 1019.44 1019.94 1020.49 1020.92 1021.13 1021.15 1021.48 1021.95 1022.47 1022.75 1022.99 1023.14 1023.45 1023.70 1023.93 1024.20 1024.25
1021.35 1021.15 1020.78 1019.79 1019.08 1018.14 1016.98 1015.64 1016.10 1017.34 1016.31 1016.02 1015.70 1015.62 1015.84 1016.41 1017.13 1017.64 1018.06 1018.34 1018.63 1018.70 1018.84 1019.08 1019.41 1019.94 1020.24 1020.42 1020.64 1021.12 1021.46 1021.45 1021.48 1021.73 1022.11 1022.37 1022.58 1022.91 1023.14 1023.46 1023.60 1023.78 1023.93 1024.17
1021.48 1020.73 1020.36 1019.89 1019.43 1019.10 1019.00 1018.71 1018.35 1018.13 1017.82 1017.12 1016.89 1016.97 1016.97 1017.41 1018.22 1018.57 1019.18 1019.65 1019.88 1019.96 1020.13 1020.29 1020.47 1020.94 1021.26 1021.45 1021.60 1021.91 1022.14 1022.13 1022.21 1022.56 1022.97 1022.89 1022.93 1023.16 1023.17 1023.46 1023.67 1023.93 1024.00 1023.97
1021.20 1020.83 1020.61 1020.02 1019.84 1019.91 1019.86 1019.44 1019.20 1018.89 1018.62 1018.30 1018.06 1018.01 1018.23 1018.80 1019.43 1019.86 1020.30 1020.80 1021.25 1021.41 1021.59 1021.82 1021.95 1022.28 1022.39 1022.35 1022.58 1022.84 1022.78 1022.67 1022.93 1023.27 1023.27 1023.12 1023.42 1023.34 1023.32 1023.43 1023.41 1023.46 1023.27 1023.21
1022.04 1021.72 1021.34 1020.88 1020.53 1020.60 1020.39 1020.55 1020.40 1020.08 1019.83 1019.58 1019.52 1019.65 1020.04 1020.26 1020.94 1021.40 1021.89 1022.33 1022.66 1022.90 1023.01 1023.10 1023.26 1023.66 1023.71 1023.49 1023.56 1023.57 1023.53 1023.50 1023.72 1023.59 1023.45 1023.43 1023.55 1023.68 1023.42 1023.11 1022.90 1022.70 1022.27 1022.14
1023.46 1023.05 1022.59 1022.34 1022.19 1022.04 1021.90 1021.61 1021.62 1021.42 1021.46 1021.43 1021.45 1021.81 1022.12 1022.11 1022.41 1022.69 1023.26 1023.83 1024.12 1024.16 1024.24 1024.17 1024.36 1024.49 1024.68 1024.67 1024.42 1024.32 1024.07 1023.81 1024.09 1023.96 1023.81 1023.73 1023.76 1023.46 1023.30 1023.07 1022.34 1021.89 1021.44 1021.05
Wind_Speed
5 6 16 25 19 20 13 10 16 9 5 5 15 13 16 16 14 14 16 16 15 17 13 13 13 13 12 9 10 10 9 7 9 8 7 6 5 4 5 5 6 7 6 6
6 16 21 15 18 22 13 14 10 3 6 3 9 19 20 25 11 14 17 16 19 14 13 14 14 13 14 13 12 11 11 10 9 7 4 5 5 5 5 4 6 6 6 6
16 16 11 16 20 23 20 17 12 4 1 10 3 12 17 22 8 15 16 22 19 20 19 17 16 15 14 14 14 13 12 12 10 10 10 8 8 5 3 4 4 5 6 6
13 14 17 21 18 14 14 14 8 8 3 5 10 7 15 22 19 14 16 11 17 18 17 15 17 16 16 14 13 13 12 12 10 13 11 14 7 6 3 4 5 5 5 6
7 9 15 21 19 18 7 20 11 4 4 1 7 6 4 23 22 15 17 20 16 15 18 19 17 16 12 12 13 11 10 11 12 11 12 9 8 7 7 6 8 6 5 5
12 7 7 5 16 16 15 11 7 3 2 5 11 12 7 19 34 20 13 18 18 15 11 10 10 12 9 7 8 11 12 9 10 10 10 11 15 13 10 8 7 4 4 4
3 1 2 9 14 13 8 6 4 3 2 6 2 11 5 11 26 23 12 15 14 14 14 14 14 11 10 10 7 10 13 8 11 12 9 11 12 11 12 9 6 7 4 2
6 1 3 2 2 7 10 5 4 5 1 4 2 7 3 7 19 21 12 15 15 13 11 13 13 13 14 10 9 8 12 13 10 11 12 11 12 8 7 7 7 5 4 2
6 4 2 6 5 7 8 5 4 7 2 4 3 2 6 7 15 13 13 13 14 14 13 13 13 10 15 12 8 10 10 10 11 12 10 12 10 10 8 10 6 5 5 3
5 6 7 2 7 2 3 10 6 2 4 3 3 2 2 2 11 16 14 14 12 13 12 10 10 9 6 10 13 10 10 12 9 10 11 9 12 9 8 8 9 7 6 4
7 5 4 1 5 3 3 3 5 3 3 3 2 1 4 8 5 16 11 11 12 12 12 11 9 9 7 8 9 11 9 12 12 10 10 10 12 11 7 5 5 6 6 6
4 6 4 4 7 5 4 4 4 3 4 1 1 2 7 4 5 13 12 10 10 11 11 11 11 9 8 7 9 9 8 11 11 11 10 8 10 11 9 6 6 5 6 5
8 5 6 5 4 4 5 6 3 2 1 2 2 2 6 7 10 10 13 11 10 11 12 10 10 9 9 10 6 10 9 7 10 10 12 7 5 6 7 7 6 5 5 5
5 4 4 5 4 4 4 6 5 2 2 3 4 3 4 5 9 9 9 9 9 10 10 10 8 9 9 9 9 8 10 9 7 9 8 7 7 5 5 6 6 6 5 6
8 6 9 7 4 3 4 8 9 6 4 4 2 4 2 3 6 5 9 9 10 10 10 9 9 9 10 10 9 8 6 6 6 7 6 6 5 5 5 6 6 5 6 6
9 4 6 5 9 8 4 7 4 4 4 4 4 6 4 6 8 6 7 8 8 8 9 10 10 11 11 11 9 7 6 6 6 6 5 5 5 5 5 5 5 6 5 5
7 8 6 5 6 8 5 6 5 2 4 4 6 4 2 4 6 5 6 5 7 8 9 9 10 10 9 10 9 8 7 6 5 5 5 5 6 6 6 6 5 5 6 5
9 8 3 4 6 5 4 5 3 3 5 7 6 6 5 5 6 6 4 5 6 7 8 8 7 7 6 6 6 6 6 6 5 5 6 6 7 6 5 5 6 6 5 6
5 5 5 3 2 5 5 7 7 6 5 7 5 6 4 4 5 7 7 2 4 5 5 6 6 5 6 7 7 7 5 5 6 7 7 6 6 6 6 7 7 5 4 5
2 3 1 4 3 2 2 8 7 5 2 12 7 5 1 4 4 3 7 5 8 7 5 6 6 5 6 4 6 6 6 6 7 6 6 6 6 7 8 7 7 4 4 6
2 0 3 3 3 5 5 14 7 2 1 3 6 7 2 3 3 3 6 8 5 6 7 6 7 5 4 5 6 5 5 7 5 5 5 5 6 7 7 5 3 3 5 5
3 3 3 2 3 5 11 7 6 4 6 4 4 4 9 8 7 6 7 8 7 8 8 7 7 6 5 4 4 3 4 1 1 1 3 3 3 3 3 5 3 3 3 5
3 3 2 2 1 2 4 3 5 3 4 5 3 5 8 7 6 6 6 7 7 7 7 6 6 6 6 6 5 3 4 4 3 1 3 3 2 3 3 4 4 2 3 5
2 3 0 2 5 4 6 6 6 4 5 5 6 7 8 9 7 8 7 7 6 6 7 5 7 6 6 6 5 3 4 3 1 3 4 3 3 3 3 3 3 3 4 4
1 5 3 2 2 0 6 8 7 8 8 9 9 7 8 8 8 7 6 7 6 6 5 5 7 5 6 6 6 5 5 2 3 2 2 3 2 3 4 4 5 6 8 8
2 1 2 0 3 2 1 4 7 8 8 8 8 10 9 8 8 7 7 6 5 6 5 6 7 7 6 6 5 6 6 5 4 4 3 3 3 3 3 4 6 11 19 21
Wind_Direction
198 221 225 228 253 252 235 215 213 184 210 207 229 247 243 255 214 188 186 191 194 200 182 175 177 172 166 165 158 159 157 154 138 134 126 116 107 94 74 63 54 61 74 72
238 237 239 242 250 256 184 191 189 254 207 188 252 243 233 231 241 204 183 179 202 185 173 179 177 172 173 173 175 171 170 153 155 149 109 111 122 85 86 82 66 60 68 69
230 236 205 264 240 256 209 215 210 200 305 225 300 276 229 220 236 231 199 189 190 184 180 181 178 176 168 173 172 175 173 159 154 122 108 96 96 99 94 80 75 60 77 76
227 228 229 261 232 228 166 193 173 180 182 221 151 281 210 202 214 235 200 182 192 188 179 175 175 179 176 177 166 168 167 157 141 141 136 152 150 147 122 113 100 78 67 84
292 245 237 233 207 218 183 170 152 149 198 330 202 239 263 190 201 224 191 191 195 180 178 174 173 175 169 160 165 162 148 142 149 151 155 146 113 108 117 119 110 96 77 62
243 248 236 248 193 190 127 112 137 122 155 234 194 197 208 193 200 215 199 184 185 169 159 144 125 129 120 120 135 138 135 137 140 140 147 146 139 140 137 138 124 108 94 73
264 217 213 261 150 162 153 147 170 167 152 245 199 185 287 234 188 202 194 189 179 167 148 143 140 136 130 127 119 134 133 122 129 123 128 129 131 135 128 132 125 132 123 126
325 349 223 27 295 167 153 172 157 140 210 312 319 205 238 305 195 176 180 178 170 154 147 152 146 142 132 123 115 126 130 121 120 129 127 125 124 122 124 129 133 106 96 116
321 265 154 72 279 160 162 152 170 80 236 254 227 264 276 304 168 136 137 153 158 151 149 147 138 151 138 122 117 119 117 118 120 123 124 117 117 130 130 112 97 111 109 118
291 292 7 326 341 90 174 164 105 108 242 238 209 127 281 35 155 149 155 162 141 127 122 122 122 125 120 113 118 97 110 109 111 115 107 117 110 89 92 107 125 141 131 135
309 302 327 23 14 2 129 117 95 157 221 269 170 60 232 295 149 157 131 129 139 132 128 119 107 92 91 92 100 108 126 118 102 94 111 116 107 98 98 121 130 151 153 158
294 312 322 316 312 316 13 57 82 151 265 182 256 68 335 265 112 110 111 119 114 116 120 114 106 106 97 85 90 96 108 113 118 125 115 115 123 135 147 149 171 151 161 147
337 331 323 11 2 10 46 1 311 103 351 340 7 39 7 95 89 106 121 123 116 111 107 110 115 112 118 106 107 117 111 112 122 126 123 128 148 148 149 162 148 164 147 159
309 292 355 7 326 316 13 342 15 79 54 347 50 348 40 84 110 115 111 104 110 109 118 115 114 127 129 115 135 129 130 136 129 118 125 149 176 161 148 148 162 154 166 174
13 348 340 299 311 324 338 2 1 28 44 37 13 101 358 108 119 108 116 121 120 122 126 134 136 137 137 137 137 127 121 120 134 120 152 178 142 142 144 159 166 165 187 191
348 339 321 305 355 360 349 324 347 38 11 35 100 62 15 65 91 108 127 129 126 132 136 143 145 148 154 149 153 153 147 134 144 162 175 152 150 162 176 165 182 185 193 193
332 340 346 310 329 333 34 346 322 64 76 8 31 339 73 91 105 136 139 141 147 153 154 159 157 155 153 156 158 167 154 138 166 172 175 166 173 186 190 185 185 199 202 194
307 332 317 291 353 15 265 297 278 355 41 77 43 28 12 89 70 85 108 142 157 153 157 149 140 140 138 138 136 132 148 161 171 189 187 187 194 196 182 190 209 214 206 212
242 311 318 348 288 282 1 9 15 5 20 17 39 25 55 112 95 44 18 83 161 152 150 137 128 125 136 157 159 159 165 175 185 203 199 196 189 193 196 213 220 216 213 223
200 273 323 341 327 93 294 318 327 294 46 344 4 330 74 17 66 21 3 16 46 59 95 134 141 130 146 160 143 161 186 188 211 201 199 194 193 206 212 214 219 205 212 230
152 265 156 331 301 293 335 305 290 92 2 340 321 316 61 75 46 74 53 45 39 43 50 63 75 88 82 126 140 184 184 221 213 196 202 202 201 210 216 220 199 198 225 234
189 147 212 44 341 326 1 334 44 316 309 328 337 10 86 95 80 63 51 50 43 56 51 59 87 80 56 65 135 175 230 284 173 199 215 218 221 221 202 214 219 220 198 235
265 196 235 186 253 353 12 304 306 307 281 341 20 58 91 82 60 61 60 50 42 48 49 41 72 78 46 29 50 56 328 352 2 5 270 266 282 235 200 209 231 235 218 231
321 4 327 5 28 20 356 329 357 341 20 2 46 67 66 91 73 75 64 51 48 38 39 29 48 48 42 22 22 19 342 351 102 256 264 275 258 271 243 245 222 223 229 223
282 342 321 309 26 138 46 1 359 10 38 55 50 55 72 82 60 66 62 49 43 40 24 26 42 35 21 5 7 351 340 332 282 273 294 298 272 255 268 237 234 233 240 226
351 334 27 356 347 319 358 339 4 32 30 33 63 56 40 50 72 72 59 37 24 26 8 23 26 24 2 354 353 356 360 1 334 308 301 272 270 255 256 266 289 261 262 263